Location: Goldmont Forest
(38.0233°N, 120.2524°W)
Time: 12:19:28
(UTC+00:00)

Cosmos 2150 Rocket - Pass Details

Date: 05 August 2024
Orbit: 747 x 804 km, 74.0° (Epoch: 15 September)

Event Time Altitude Azimuth Distance (km) Brightness Sun altitude
Rises 12:19:42 0° 339° (NNW) 3,284 7.4 -9.4°
Reaches altitude 10° 12:22:07 10° 337° (NNW) 2,343 6.6 -9.0°
Maximum altitude 12:27:24 70° 255° (WSW) 823 4.0 -8.1°
Drops below altitude 10° 12:32:34 10° 172° (S) 2,289 6.3 -7.2°
Sets 12:34:55 0° 170° (S) 3,202 7.0 -6.8°
